• Em Portugal
  • Lista de países
  • Para 7 dias
  • Temperatura da água
  • Mapas de satélite
  • Mapa do tempo
  • Widgets de tempo
  • user-avatar
    Iniciar Sessão

    Previsão horária em Maun

    Hoje, 21 Setembro, Quinta-feira

    Tempo Temperatura Precipitação Vento Pressão Humidade
    00:00 +27°C° 0 mm 4 m/s 683 mmHg 26%
    01:00 +27°C° 0 mm 4 m/s 684 mmHg 30%
    02:00 +26°C° 0 mm 5 m/s 684 mmHg 33%
    03:00 +26°C° 0 mm 4 m/s 683 mmHg 35%
    04:00 +25°C° 0 mm 4 m/s 683 mmHg 37%
    05:00 +25°C° 0 mm 4 m/s 683 mmHg 38%
    06:00 +26°C° 0 mm 5 m/s 684 mmHg 36%
    07:00 +27°C° 0 mm 5 m/s 685 mmHg 35%
    08:00 +28°C° 0 mm 6 m/s 685 mmHg 33%
    09:00 +30°C° 0 mm 6 m/s 685 mmHg 30%
    10:00 +33°C° 0 mm 5 m/s 686 mmHg 26%
    11:00 +36°C° 0 mm 5 m/s 686 mmHg 23%
    12:00 +37°C° 0 mm 5 m/s 685 mmHg 20%
    13:00 +38°C° 0 mm 4 m/s 684 mmHg 18%
    14:00 +39°C° 0 mm 3 m/s 684 mmHg 16%
    15:00 +38°C° 0 mm 3 m/s 683 mmHg 16%
    16:00 +38°C° 0 mm 3 m/s 683 mmHg 17%
    17:00 +37°C° 0 mm 3 m/s 682 mmHg 17%
    18:00 +35°C° 0 mm 3 m/s 682 mmHg 20%
    19:00 +33°C° 0 mm 3 m/s 682 mmHg 22%
    20:00 +30°C° 0 mm 2 m/s 682 mmHg 25%
    21:00 +29°C° 0 mm 3 m/s 683 mmHg 25%
    22:00 +29°C° 0 mm 3 m/s 683 mmHg 25%
    23:00 +28°C° 0 mm 4 m/s 683 mmHg 25%

    Amanhã, 22 Setembro, Sexta-feira

    Tempo Temperatura Precipitação Vento Pressão Humidade
    00:00 +28°C° 0 mm 4 m/s 683 mmHg 25%
    01:00 +27°C° 0 mm 4 m/s 683 mmHg 26%
    02:00 +26°C° 0 mm 4 m/s 683 mmHg 26%
    03:00 +25°C° 0 mm 4 m/s 683 mmHg 28%
    04:00 +25°C° 0 mm 4 m/s 682 mmHg 29%
    05:00 +23°C° 0 mm 4 m/s 682 mmHg 30%
    06:00 +25°C° 0 mm 4 m/s 683 mmHg 29%
    07:00 +26°C° 0 mm 4 m/s 683 mmHg 28%
    08:00 +27°C° 0 mm 5 m/s 684 mmHg 27%
    09:00 +29°C° 0 mm 4 m/s 684 mmHg 24%
    10:00 +33°C° 0 mm 4 m/s 684 mmHg 21%
    11:00 +36°C° 0 mm 4 m/s 685 mmHg 18%
    12:00 +37°C° 0 mm 3 m/s 684 mmHg 16%
    13:00 +38°C° 0 mm 3 m/s 683 mmHg 14%
    14:00 +40°C° 0 mm 3 m/s 682 mmHg 12%
    15:00 +39°C° 0 mm 3 m/s 682 mmHg 12%
    16:00 +39°C° 0 mm 3 m/s 681 mmHg 12%
    17:00 +40°C° 0 mm 4 m/s 681 mmHg 11%
    18:00 +36°C° 0 mm 4 m/s 681 mmHg 14%
    19:00 +34°C° 0 mm 3 m/s 681 mmHg 16%
    20:00 +30°C° 0 mm 3 m/s 681 mmHg 18%
    21:00 +29°C° 0 mm 3 m/s 682 mmHg 19%
    22:00 +28°C° 0 mm 3 m/s 682 mmHg 20%
    23:00 +27°C° 0 mm 3 m/s 682 mmHg 21%

    Depois de amanhã, 23 Setembro, Sábado

    Tempo Temperatura Precipitação Vento Pressão Humidade
    00:00 +27°C° 0 mm 2 m/s 682 mmHg 22%
    01:00 +26°C° 0 mm 2 m/s 682 mmHg 23%
    02:00 +25°C° 0 mm 2 m/s 681 mmHg 24%
    03:00 +25°C° 0 mm 2 m/s 681 mmHg 24%
    04:00 +24°C° 0 mm 2 m/s 681 mmHg 25%
    05:00 +23°C° 0 mm 2 m/s 681 mmHg 26%
    06:00 +25°C° 0 mm 3 m/s 682 mmHg 24%
    07:00 +26°C° 0 mm 3 m/s 682 mmHg 21%
    08:00 +27°C° 0 mm 3 m/s 683 mmHg 19%
    09:00 +30°C° 0 mm 3 m/s 684 mmHg 17%
    10:00 +35°C° 0 mm 3 m/s 684 mmHg 15%
    11:00 +38°C° 0 mm 4 m/s 684 mmHg 13%
    12:00 +39°C° 0 mm 3 m/s 684 mmHg 12%
    13:00 +40°C° 0 mm 3 m/s 683 mmHg 10%
    14:00 +42°C° 0 mm 3 m/s 682 mmHg 9%
    15:00 +42°C° 0 mm 3 m/s 682 mmHg 9%
    16:00 +42°C° 0 mm 4 m/s 681 mmHg 8%
    17:00 +41°C° 0 mm 4 m/s 681 mmHg 8%
    18:00 +38°C° 0 mm 4 m/s 681 mmHg 9%
    19:00 +35°C° 0 mm 4 m/s 681 mmHg 10%
    20:00 +32°C° 0 mm 4 m/s 682 mmHg 12%
    21:00 +30°C° 0 mm 3 m/s 682 mmHg 12%
    22:00 +29°C° 0 mm 3 m/s 682 mmHg 12%
    23:00 +28°C° 0 mm 3 m/s 682 mmHg 13%

    24 Setembro, Domingo

    Tempo Temperatura Precipitação Vento Pressão Humidade
    00:00 +28°C° 0 mm 3 m/s 682 mmHg 13%
    01:00 +28°C° 0 mm 4 m/s 682 mmHg 14%
    02:00 +27°C° 0 mm 5 m/s 682 mmHg 14%
    03:00 +27°C° 0 mm 5 m/s 682 mmHg 15%
    04:00 +26°C° 0 mm 5 m/s 682 mmHg 17%
    05:00 +26°C° 0 mm 5 m/s 682 mmHg 18%
    06:00 +27°C° 0 mm 6 m/s 683 mmHg 19%
    07:00 +27°C° 0 mm 6 m/s 684 mmHg 19%
    08:00 +28°C° 0 mm 7 m/s 685 mmHg 20%
    09:00 +30°C° 0 mm 6 m/s 685 mmHg 18%
    10:00 +34°C° 0 mm 6 m/s 685 mmHg 15%
    11:00 +36°C° 0 mm 5 m/s 685 mmHg 13%
    12:00 +39°C° 0 mm 5 m/s 684 mmHg 11%
    13:00 +40°C° 0 mm 5 m/s 684 mmHg 9%
    14:00 +42°C° 0 mm 4 m/s 683 mmHg 8%
    15:00 +41°C° 0 mm 4 m/s 683 mmHg 8%
    16:00 +41°C° 0 mm 4 m/s 682 mmHg 9%
    17:00 +40°C° 0 mm 5 m/s 682 mmHg 9%
    18:00 +36°C° 0 mm 4 m/s 682 mmHg 12%
    19:00 +34°C° 0 mm 4 m/s 682 mmHg 14%
    20:00 +30°C° 0 mm 3 m/s 682 mmHg 17%
    21:00 +29°C° 0 mm 3 m/s 682 mmHg 19%
    22:00 +28°C° 0 mm 3 m/s 682 mmHg 20%
    23:00 +27°C° 0 mm 3 m/s 682 mmHg 22%

    25 Setembro, Segunda-feira

    Tempo Temperatura Precipitação Vento Pressão Humidade
    00:00 +26°C° 0 mm 3 m/s 682 mmHg 25%
    01:00 +25°C° 0 mm 3 m/s 682 mmHg 28%
    02:00 +24°C° 0 mm 3 m/s 681 mmHg 30%
    03:00 +22°C° 0 mm 3 m/s 681 mmHg 32%
    04:00 +22°C° 0 mm 3 m/s 681 mmHg 33%
    05:00 +21°C° 0 mm 3 m/s 681 mmHg 35%
    06:00 +24°C° 0 mm 3 m/s 681 mmHg 31%
    07:00 +25°C° 0 mm 4 m/s 682 mmHg 28%
    08:00 +27°C° 0 mm 5 m/s 682 mmHg 24%
    09:00 +30°C° 0 mm 5 m/s 683 mmHg 20%
    10:00 +34°C° 0 mm 4 m/s 683 mmHg 16%
    11:00 +37°C° 0 mm 4 m/s 683 mmHg 12%
    12:00 +38°C° 0 mm 4 m/s 682 mmHg 11%
    13:00 +40°C° 0 mm 4 m/s 681 mmHg 9%
    14:00 +41°C° 0 mm 4 m/s 680 mmHg 8%
    15:00 +41°C° 0 mm 4 m/s 680 mmHg 8%
    16:00 +40°C° 0 mm 4 m/s 679 mmHg 8%
    17:00 +39°C° 0 mm 3 m/s 679 mmHg 8%
    18:00 +36°C° 0 mm 3 m/s 679 mmHg 10%
    19:00 +33°C° 0 mm 3 m/s 679 mmHg 12%
    20:00 +29°C° 0 mm 2 m/s 678 mmHg 14%
    21:00 +29°C° 0 mm 3 m/s 678 mmHg 15%
    22:00 +28°C° 0 mm 3 m/s 678 mmHg 16%
    23:00 +27°C° 0 mm 3 m/s 678 mmHg 18%

    26 Setembro, Terça-feira

    Tempo Temperatura Precipitação Vento Pressão Humidade
    00:00 +26°C° 0 mm 3 m/s 678 mmHg 19%
    01:00 +25°C° 0 mm 3 m/s 678 mmHg 21%
    02:00 +25°C° 0 mm 3 m/s 677 mmHg 22%
    03:00 +23°C° 0 mm 4 m/s 677 mmHg 22%
    04:00 +23°C° 0 mm 4 m/s 677 mmHg 23%
    05:00 +23°C° 0 mm 4 m/s 677 mmHg 23%
    06:00 +25°C° 0 mm 4 m/s 677 mmHg 23%
    07:00 +27°C° 0 mm 5 m/s 678 mmHg 23%
    08:00 +28°C° 0 mm 5 m/s 679 mmHg 22%
    09:00 +32°C° 0 mm 5 m/s 679 mmHg 19%
    10:00 +35°C° 0 mm 5 m/s 679 mmHg 16%
    11:00 +38°C° 0 mm 4 m/s 680 mmHg 12%
    12:00 +40°C° 0 mm 4 m/s 679 mmHg 11%
    13:00 +41°C° 0 mm 4 m/s 678 mmHg 10%
    14:00 +42°C° 0 mm 3 m/s 677 mmHg 8%
    15:00 +42°C° 0 mm 3 m/s 677 mmHg 8%
    16:00 +41°C° 0 mm 2 m/s 677 mmHg 8%
    17:00 +41°C° 0 mm 2 m/s 676 mmHg 8%
    18:00 +39°C° 0 mm 2 m/s 676 mmHg 9%
    19:00 +35°C° 0 mm 1 m/s 676 mmHg 10%
    20:00 +33°C° 0 mm 1 m/s 676 mmHg 11%
    21:00 +33°C° 0 mm 1 m/s 677 mmHg 12%
    22:00 +32°C° 0 mm 1 m/s 677 mmHg 12%
    23:00 +31°C° 0 mm 1 m/s 677 mmHg 13%
    Mostrar mais